����������;��������(kVARh)
2016-01-25 00:00;0
2016-01-25 00:15;0
2016-01-25 00:30;0
2016-01-25 00:45;0
2016-01-25 01:00;0
2016-01-25 01:15;0
2016-01-25 01:30;0
2016-01-25 01:45;0,05
2016-01-25 02:00;0
2016-01-25 02:15;0
2016-01-25 02:30;0
2016-01-25 02:45;0,05
2016-01-25 03:00;0
2016-01-25 03:15;0,3
2016-01-25 03:30;0,1
2016-01-25 03:45;0
2016-01-25 04:00;0,8
2016-01-25 04:15;0
2016-01-25 04:30;0,25
2016-01-25 04:45;0,4
2016-01-25 05:00;0,7
2016-01-25 05:15;0
2016-01-25 05:30;0,25
2016-01-25 05:45;0
2016-01-25 06:00;0,05
2016-01-25 06:15;0,2
2016-01-25 06:30;0,6
2016-01-25 06:45;0
2016-01-25 07:00;0,15
2016-01-25 07:15;0,1
2016-01-25 07:30;0,75
2016-01-25 07:45;2,5
2016-01-25 08:00;23,15
2016-01-25 08:15;29,55
2016-01-25 08:30;40,3
2016-01-25 08:45;49,2
2016-01-25 09:00;63,8
2016-01-25 09:15;56,9
2016-01-25 09:30;61,9
2016-01-25 09:45;65,65
2016-01-25 10:00;70,45
2016-01-25 10:15;76,25
2016-01-25 10:30;78,7
2016-01-25 10:45;81,2
2016-01-25 11:00;89,8
2016-01-25 11:15;79,15
2016-01-25 11:30;79,15
2016-01-25 11:45;71,85
2016-01-25 12:00;67,15
2016-01-25 12:15;69,05
2016-01-25 12:30;67,5
2016-01-25 12:45;70,05
2016-01-25 13:00;64,25
2016-01-25 13:15;69,15
2016-01-25 13:30;69,45
2016-01-25 13:45;73,1
2016-01-25 14:00;78,7
2016-01-25 14:15;74,45
2016-01-25 14:30;72,6
2016-01-25 14:45;75,5
2016-01-25 15:00;74,7
2016-01-25 15:15;72,45
2016-01-25 15:30;66,9
2016-01-25 15:45;65,5
2016-01-25 16:00;60,8
2016-01-25 16:15;57
2016-01-25 16:30;57,1
2016-01-25 16:45;55,1
2016-01-25 17:00;49
2016-01-25 17:15;42,6
2016-01-25 17:30;45,1
2016-01-25 17:45;38,05
2016-01-25 18:00;34,35
2016-01-25 18:15;31,8
2016-01-25 18:30;33,2
2016-01-25 18:45;31,5
2016-01-25 19:00;32,9
2016-01-25 19:15;27,4
2016-01-25 19:30;26,2
2016-01-25 19:45;24,1
2016-01-25 20:00;25,55
2016-01-25 20:15;23,65
2016-01-25 20:30;19,6
2016-01-25 20:45;22,95
2016-01-25 21:00;15,2
2016-01-25 21:15;6,7
2016-01-25 21:30;8,5
2016-01-25 21:45;4,05
2016-01-25 22:00;3,9
2016-01-25 22:15;2,9
2016-01-25 22:30;2,75
2016-01-25 22:45;2,25
2016-01-25 23:00;0,55
2016-01-25 23:15;2,15
2016-01-25 23:30;0,4
2016-01-25 23:45;0,7
2016-01-26 00:00;0,95
2016-01-26 00:15;0,1
2016-01-26 00:30;0,05
2016-01-26 00:45;0
2016-01-26 01:00;0,1
2016-01-26 01:15;0,25
2016-01-26 01:30;0,05
2016-01-26 01:45;0,05
2016-01-26 02:00;0
2016-01-26 02:15;0
2016-01-26 02:30;0
2016-01-26 02:45;0
2016-01-26 03:00;0
2016-01-26 03:15;0,3
2016-01-26 03:30;0,15
2016-01-26 03:45;0,05
2016-01-26 04:00;0,55
2016-01-26 04:15;0
2016-01-26 04:30;0,25
2016-01-26 04:45;0,65
2016-01-26 05:00;0,7
2016-01-26 05:15;0,7
2016-01-26 05:30;0,1
2016-01-26 05:45;0,55
2016-01-26 06:00;0
2016-01-26 06:15;0
2016-01-26 06:30;0,05
2016-01-26 06:45;0,55
2016-01-26 07:00;2,05
2016-01-26 07:15;3,6
2016-01-26 07:30;3,1
2016-01-26 07:45;9,5
2016-01-26 08:00;26,2
2016-01-26 08:15;24,5
2016-01-26 08:30;37,3
2016-01-26 08:45;47,9
2016-01-26 09:00;54,5
2016-01-26 09:15;63,15
2016-01-26 09:30;68,05
2016-01-26 09:45;60,9
2016-01-26 10:00;57,8
2016-01-26 10:15;55,2
2016-01-26 10:30;57,65
2016-01-26 10:45;64,5
2016-01-26 11:00;64,45
2016-01-26 11:15;61,15
2016-01-26 11:30;66,95
2016-01-26 11:45;62,9
2016-01-26 12:00;71,3
2016-01-26 12:15;64,35
2016-01-26 12:30;66,95
2016-01-26 12:45;71,75
2016-01-26 13:00;67,2
2016-01-26 13:15;67,1
2016-01-26 13:30;70,4
2016-01-26 13:45;67,2
2016-01-26 14:00;72,95
2016-01-26 14:15;68,5
2016-01-26 14:30;67,05
2016-01-26 14:45;63,55
2016-01-26 15:00;63,15
2016-01-26 15:15;64,05
2016-01-26 15:30;57,95
2016-01-26 15:45;57,9
2016-01-26 16:00;52,75
2016-01-26 16:15;52,4
2016-01-26 16:30;51,45
2016-01-26 16:45;43,9
2016-01-26 17:00;36,7
2016-01-26 17:15;33,5
2016-01-26 17:30;38,15
2016-01-26 17:45;34,15
2016-01-26 18:00;27,95
2016-01-26 18:15;23,45
2016-01-26 18:30;22,15
2016-01-26 18:45;21,6
2016-01-26 19:00;22,3
2016-01-26 19:15;29,85
2016-01-26 19:30;29,45
2016-01-26 19:45;22,1
2016-01-26 20:00;14
2016-01-26 20:15;14,4
2016-01-26 20:30;13,75
2016-01-26 20:45;22,25
2016-01-26 21:00;21,7
2016-01-26 21:15;16,15
2016-01-26 21:30;17,2
2016-01-26 21:45;6,65
2016-01-26 22:00;7,6
2016-01-26 22:15;1,3
2016-01-26 22:30;1,85
2016-01-26 22:45;1,55
2016-01-26 23:00;3,1
2016-01-26 23:15;4
2016-01-26 23:30;6,75
2016-01-26 23:45;2,15
2016-01-27 00:00;2
2016-01-27 00:15;0,35
2016-01-27 00:30;0,25
2016-01-27 00:45;0
2016-01-27 01:00;0,25
2016-01-27 01:15;0,45
2016-01-27 01:30;0,85
2016-01-27 01:45;1,05
2016-01-27 02:00;13,25
2016-01-27 02:15;15,4
2016-01-27 02:30;12,45
2016-01-27 02:45;7,7
2016-01-27 03:00;6
2016-01-27 03:15;10,1
2016-01-27 03:30;5,5
2016-01-27 03:45;5,55
2016-01-27 04:00;12,3
2016-01-27 04:15;10,7
2016-01-27 04:30;9,05
2016-01-27 04:45;14,2
2016-01-27 05:00;15,25
2016-01-27 05:15;9,25
2016-01-27 05:30;8,55
2016-01-27 05:45;9,15
2016-01-27 06:00;9,65
2016-01-27 06:15;10,5
2016-01-27 06:30;13,3
2016-01-27 06:45;13,9
2016-01-27 07:00;8,15
2016-01-27 07:15;13,5
2016-01-27 07:30;16,75
2016-01-27 07:45;25,25
2016-01-27 08:00;30,9
2016-01-27 08:15;21,7
2016-01-27 08:30;27,75
2016-01-27 08:45;30,95
2016-01-27 09:00;38,45
2016-01-27 09:15;34,95
2016-01-27 09:30;44,45
2016-01-27 09:45;47,55
2016-01-27 10:00;54,75
2016-01-27 10:15;57,8
2016-01-27 10:30;60,95
2016-01-27 10:45;65,4
2016-01-27 11:00;69,9
2016-01-27 11:15;60,4
2016-01-27 11:30;63,55
2016-01-27 11:45;66,3
2016-01-27 12:00;53,75
2016-01-27 12:15;62,05
2016-01-27 12:30;68,65
2016-01-27 12:45;57,4
2016-01-27 13:00;64,15
2016-01-27 13:15;60,4
2016-01-27 13:30;62,25
2016-01-27 13:45;63,6
2016-01-27 14:00;68,45
2016-01-27 14:15;65,25
2016-01-27 14:30;56,2
2016-01-27 14:45;62
2016-01-27 15:00;53,6
2016-01-27 15:15;49,15
2016-01-27 15:30;48,75
2016-01-27 15:45;43,55
2016-01-27 16:00;41,1
2016-01-27 16:15;38
2016-01-27 16:30;35,2
2016-01-27 16:45;27,6
2016-01-27 17:00;29,05
2016-01-27 17:15;26,15
2016-01-27 17:30;27,65
2016-01-27 17:45;31
2016-01-27 18:00;27,1
2016-01-27 18:15;22,45
2016-01-27 18:30;23,75
2016-01-27 18:45;28,25
2016-01-27 19:00;30,95
2016-01-27 19:15;31,9
2016-01-27 19:30;32,1
2016-01-27 19:45;26,75
2016-01-27 20:00;24,15
2016-01-27 20:15;24,65
2016-01-27 20:30;25,75
2016-01-27 20:45;18,5
2016-01-27 21:00;14,7
2016-01-27 21:15;16,95
2016-01-27 21:30;19,25
2016-01-27 21:45;8,65
2016-01-27 22:00;0,5
2016-01-27 22:15;2,4
2016-01-27 22:30;3,95
2016-01-27 22:45;2,6
2016-01-27 23:00;3,9
2016-01-27 23:15;9,2
2016-01-27 23:30;8,6
2016-01-27 23:45;4,65
2016-01-28 00:00;8,25
2016-01-28 00:15;8,75
2016-01-28 00:30;5,7
2016-01-28 00:45;1,05
2016-01-28 01:00;2,8
2016-01-28 01:15;2,5
2016-01-28 01:30;4,2
2016-01-28 01:45;10,55
2016-01-28 02:00;6,55
2016-01-28 02:15;2,9
2016-01-28 02:30;5,7
2016-01-28 02:45;2,2
2016-01-28 03:00;0,9
2016-01-28 03:15;1,3
2016-01-28 03:30;0,85
2016-01-28 03:45;1,1
2016-01-28 04:00;1,65
2016-01-28 04:15;3,15
2016-01-28 04:30;10,2
2016-01-28 04:45;4,6
2016-01-28 05:00;5,05
2016-01-28 05:15;4,05
2016-01-28 05:30;6,7
2016-01-28 05:45;4,65
2016-01-28 06:00;5,4
2016-01-28 06:15;22,7
2016-01-28 06:30;21,55
2016-01-28 06:45;18,6
2016-01-28 07:00;18,65
2016-01-28 07:15;18,2
2016-01-28 07:30;16,35
2016-01-28 07:45;22,75
2016-01-28 08:00;33,8
2016-01-28 08:15;30,6
2016-01-28 08:30;39,75
2016-01-28 08:45;45,4
2016-01-28 09:00;55,4
2016-01-28 09:15;57,7
2016-01-28 09:30;57,8
2016-01-28 09:45;47,75
2016-01-28 10:00;49,7
2016-01-28 10:15;55,05
2016-01-28 10:30;54,9
2016-01-28 10:45;61,3
2016-01-28 11:00;59,15
2016-01-28 11:15;59,25
2016-01-28 11:30;55,35
2016-01-28 11:45;55,2
2016-01-28 12:00;59,1
2016-01-28 12:15;60,05
2016-01-28 12:30;54,85
2016-01-28 12:45;57,3
2016-01-28 13:00;57,9
2016-01-28 13:15;67,85
2016-01-28 13:30;59,95
2016-01-28 13:45;57,65
2016-01-28 14:00;61,65
2016-01-28 14:15;61,05
2016-01-28 14:30;61,65
2016-01-28 14:45;62,3
2016-01-28 15:00;51,8
2016-01-28 15:15;53,3
2016-01-28 15:30;49,85
2016-01-28 15:45;42,85
2016-01-28 16:00;43,55
2016-01-28 16:15;33,05
2016-01-28 16:30;25,8
2016-01-28 16:45;24,3
2016-01-28 17:00;18,3
2016-01-28 17:15;18,6
2016-01-28 17:30;16,8
2016-01-28 17:45;21,5
2016-01-28 18:00;21,15
2016-01-28 18:15;21,5
2016-01-28 18:30;27,9
2016-01-28 18:45;27,9
2016-01-28 19:00;28,25
2016-01-28 19:15;23,35
2016-01-28 19:30;22,35
2016-01-28 19:45;21,5
2016-01-28 20:00;20,45
2016-01-28 20:15;22,3
2016-01-28 20:30;20,2
2016-01-28 20:45;19,45
2016-01-28 21:00;16,75
2016-01-28 21:15;13,9
2016-01-28 21:30;10,3
2016-01-28 21:45;10,55
2016-01-28 22:00;6,15
2016-01-28 22:15;2,75
2016-01-28 22:30;0,8
2016-01-28 22:45;2,35
2016-01-28 23:00;3,6
2016-01-28 23:15;5,1
2016-01-28 23:30;6,45
2016-01-28 23:45;6,95
2016-01-29 00:00;7,85
2016-01-29 00:15;12,6
2016-01-29 00:30;4,9
2016-01-29 00:45;0,15
2016-01-29 01:00;0,25
2016-01-29 01:15;0,35
2016-01-29 01:30;0,1
2016-01-29 01:45;0,15
2016-01-29 02:00;0,45
2016-01-29 02:15;0,2
2016-01-29 02:30;0,05
2016-01-29 02:45;0
2016-01-29 03:00;0,3
2016-01-29 03:15;0
2016-01-29 03:30;0
2016-01-29 03:45;0
2016-01-29 04:00;0,1
2016-01-29 04:15;0
2016-01-29 04:30;0
2016-01-29 04:45;0
2016-01-29 05:00;0,5
2016-01-29 05:15;0,15
2016-01-29 05:30;0,15
2016-01-29 05:45;0,05
2016-01-29 06:00;0,5
2016-01-29 06:15;1,65
2016-01-29 06:30;2,45
2016-01-29 06:45;18,25
2016-01-29 07:00;18,4
2016-01-29 07:15;16,45
2016-01-29 07:30;18,1
2016-01-29 07:45;21,1
2016-01-29 08:00;25,45
2016-01-29 08:15;26,15
2016-01-29 08:30;31,3
2016-01-29 08:45;36,95
2016-01-29 09:00;42,5
2016-01-29 09:15;47,7
2016-01-29 09:30;48,4
2016-01-29 09:45;34,3
2016-01-29 10:00;46,95
2016-01-29 10:15;40,3
2016-01-29 10:30;44,45
2016-01-29 10:45;51,85
2016-01-29 11:00;52,65
2016-01-29 11:15;45
2016-01-29 11:30;49
2016-01-29 11:45;44,5
2016-01-29 12:00;42,4
2016-01-29 12:15;39,75
2016-01-29 12:30;40,05
2016-01-29 12:45;49,1
2016-01-29 13:00;50
2016-01-29 13:15;44
2016-01-29 13:30;42,1
2016-01-29 13:45;41,25
2016-01-29 14:00;44,15
2016-01-29 14:15;51,8
2016-01-29 14:30;51,8
2016-01-29 14:45;43,5
2016-01-29 15:00;46,15
2016-01-29 15:15;38,55
2016-01-29 15:30;43,4
2016-01-29 15:45;30,4
2016-01-29 16:00;38,8
2016-01-29 16:15;31,9
2016-01-29 16:30;34,45
2016-01-29 16:45;35,4
2016-01-29 17:00;33,45
2016-01-29 17:15;35,65
2016-01-29 17:30;32,4
2016-01-29 17:45;36,85
2016-01-29 18:00;22,2
2016-01-29 18:15;17,25
2016-01-29 18:30;16,75
2016-01-29 18:45;14,5
2016-01-29 19:00;18,9
2016-01-29 19:15;11,4
2016-01-29 19:30;11,4
2016-01-29 19:45;14,3
2016-01-29 20:00;5,85
2016-01-29 20:15;10,7
2016-01-29 20:30;5,65
2016-01-29 20:45;5,5
2016-01-29 21:00;8,9
2016-01-29 21:15;1,75
2016-01-29 21:30;4,05
2016-01-29 21:45;1,2
2016-01-29 22:00;1,3
2016-01-29 22:15;7,6
2016-01-29 22:30;4,05
2016-01-29 22:45;7,5
2016-01-29 23:00;2,35
2016-01-29 23:15;1,3
2016-01-29 23:30;7,55
2016-01-29 23:45;0,3
2016-01-30 00:00;2,5
2016-01-30 00:15;4,8
2016-01-30 00:30;0
2016-01-30 00:45;5,3
2016-01-30 01:00;0,8
2016-01-30 01:15;0,05
2016-01-30 01:30;0,9
2016-01-30 01:45;0
2016-01-30 02:00;0,55
2016-01-30 02:15;0
2016-01-30 02:30;0
2016-01-30 02:45;0,8
2016-01-30 03:00;0
2016-01-30 03:15;0,05
2016-01-30 03:30;0,45
2016-01-30 03:45;0
2016-01-30 04:00;1,35
2016-01-30 04:15;0,05
2016-01-30 04:30;0,05
2016-01-30 04:45;1,7
2016-01-30 05:00;0,25
2016-01-30 05:15;0,15
2016-01-30 05:30;2,35
2016-01-30 05:45;0
2016-01-30 06:00;0,45
2016-01-30 06:15;1,5
2016-01-30 06:30;0,25
2016-01-30 06:45;1,75
2016-01-30 07:00;0,15
2016-01-30 07:15;0
2016-01-30 07:30;1,75
2016-01-30 07:45;0
2016-01-30 08:00;0
2016-01-30 08:15;2,1
2016-01-30 08:30;0
2016-01-30 08:45;0,7
2016-01-30 09:00;4,15
2016-01-30 09:15;0,05
2016-01-30 09:30;2,45
2016-01-30 09:45;3,2
2016-01-30 10:00;0,05
2016-01-30 10:15;2,8
2016-01-30 10:30;0,3
2016-01-30 10:45;0,05
2016-01-30 11:00;1,95
2016-01-30 11:15;0,15
2016-01-30 11:30;0,55
2016-01-30 11:45;0,9
2016-01-30 12:00;0,45
2016-01-30 12:15;0,3
2016-01-30 12:30;0,25
2016-01-30 12:45;0,5
2016-01-30 13:00;2,05
2016-01-30 13:15;2,75
2016-01-30 13:30;3,65
2016-01-30 13:45;2,45
2016-01-30 14:00;1,3
2016-01-30 14:15;0,05
2016-01-30 14:30;0,25
2016-01-30 14:45;0,95
2016-01-30 15:00;0,9
2016-01-30 15:15;1,45
2016-01-30 15:30;0,3
2016-01-30 15:45;0,8
2016-01-30 16:00;0,55
2016-01-30 16:15;0,35
2016-01-30 16:30;0,9
2016-01-30 16:45;0,6
2016-01-30 17:00;0,75
2016-01-30 17:15;0,45
2016-01-30 17:30;0,1
2016-01-30 17:45;0,45
2016-01-30 18:00;0,15
2016-01-30 18:15;0,9
2016-01-30 18:30;0,65
2016-01-30 18:45;1,25
2016-01-30 19:00;1,3
2016-01-30 19:15;1,25
2016-01-30 19:30;1,05
2016-01-30 19:45;1,8
2016-01-30 20:00;2,55
2016-01-30 20:15;2,35
2016-01-30 20:30;3,7
2016-01-30 20:45;5,8
2016-01-30 21:00;5,8
2016-01-30 21:15;5,4
2016-01-30 21:30;0,8
2016-01-30 21:45;0,8
2016-01-30 22:00;0,4
2016-01-30 22:15;0,5
2016-01-30 22:30;0,7
2016-01-30 22:45;0
2016-01-30 23:00;0
2016-01-30 23:15;0
2016-01-30 23:30;0
2016-01-30 23:45;0
2016-01-31 00:00;0
2016-01-31 00:15;0
2016-01-31 00:30;0
2016-01-31 00:45;0
2016-01-31 01:00;0
2016-01-31 01:15;0
2016-01-31 01:30;0
2016-01-31 01:45;0,1
2016-01-31 02:00;0
2016-01-31 02:15;0,05
2016-01-31 02:30;0
2016-01-31 02:45;0
2016-01-31 03:00;0
2016-01-31 03:15;0
2016-01-31 03:30;0
2016-01-31 03:45;0
2016-01-31 04:00;0
2016-01-31 04:15;0,05
2016-01-31 04:30;0
2016-01-31 04:45;0
2016-01-31 05:00;0
2016-01-31 05:15;0
2016-01-31 05:30;0
2016-01-31 05:45;0
2016-01-31 06:00;0
2016-01-31 06:15;0,1
2016-01-31 06:30;0
2016-01-31 06:45;0
2016-01-31 07:00;0
2016-01-31 07:15;0
2016-01-31 07:30;0
2016-01-31 07:45;0
2016-01-31 08:00;0
2016-01-31 08:15;0,1
2016-01-31 08:30;0
2016-01-31 08:45;0
2016-01-31 09:00;0
2016-01-31 09:15;0
2016-01-31 09:30;0
2016-01-31 09:45;0,1
2016-01-31 10:00;0,1
2016-01-31 10:15;0,25
2016-01-31 10:30;0,85
2016-01-31 10:45;0,15
2016-01-31 11:00;0,5
2016-01-31 11:15;0
2016-01-31 11:30;0
2016-01-31 11:45;0
2016-01-31 12:00;0
2016-01-31 12:15;0
2016-01-31 12:30;0,05
2016-01-31 12:45;0
2016-01-31 13:00;0
2016-01-31 13:15;0
2016-01-31 13:30;0
2016-01-31 13:45;0
2016-01-31 14:00;0
2016-01-31 14:15;0,2
2016-01-31 14:30;0,05
2016-01-31 14:45;0
2016-01-31 15:00;0
2016-01-31 15:15;0
2016-01-31 15:30;0,15
2016-01-31 15:45;0
2016-01-31 16:00;0
2016-01-31 16:15;0
2016-01-31 16:30;0
2016-01-31 16:45;0,1
2016-01-31 17:00;0,2
2016-01-31 17:15;0,1
2016-01-31 17:30;0,1
2016-01-31 17:45;0,95
2016-01-31 18:00;0,9
2016-01-31 18:15;0,85
2016-01-31 18:30;1,1
2016-01-31 18:45;1,7
2016-01-31 19:00;1,15
2016-01-31 19:15;0,7
2016-01-31 19:30;0,8
2016-01-31 19:45;0,45
2016-01-31 20:00;0,9
2016-01-31 20:15;0,85
2016-01-31 20:30;0,85
2016-01-31 20:45;0,9
2016-01-31 21:00;1
2016-01-31 21:15;1,1
2016-01-31 21:30;1,8
2016-01-31 21:45;2,65
2016-01-31 22:00;0,45
2016-01-31 22:15;0
2016-01-31 22:30;0,3
2016-01-31 22:45;0,9
2016-01-31 23:00;0,85
2016-01-31 23:15;0,35
2016-01-31 23:30;0,05
2016-01-31 23:45;0

